�N����,����,�~����,�C��,���x,�C��,����,���ϕ���,�ő�u�ԕ���,�ő厞����,���˗�,�I�_���x,�n�����x,�ő啗���N��,DTYPE
"22/05/26","00:10",0.0,18.6,84.0,1005.7,285.8,1.2,1.6,262.2,0.00,15.9,19.5,"00:00:56",1
"22/05/26","00:20",0.0,18.6,84.4,1005.5,304.4,1.5,1.9,327.7,0.00,16.0,19.6,"00:16:56",1
"22/05/26","00:30",0.0,18.7,84.5,1005.2,329.2,1.3,1.9,313.2,0.00,16.1,19.5,"00:29:12",1
"22/05/26","00:40",0.0,18.4,84.8,1005.5,322.8,1.2,1.7,330.3,0.00,15.8,19.6,"00:30:48",1
"22/05/26","00:50",0.0,18.1,85.2,1005.0,294.3,1.3,1.8,314.7,0.00,15.6,19.4,"00:46:48",1
"22/05/26","01:00",0.0,18.0,85.6,1005.0,292.1,1.2,2.0,328.0,0.00,15.6,19.3,"00:57:44",1
"22/05/26","01:10",0.0,18.0,86.0,1005.0,324.6,1.5,2.0,310.2,0.00,15.7,19.4,"01:02:08",1
"22/05/26","01:20",0.0,17.8,86.3,1004.8,291.6,1.3,1.9,318.4,0.00,15.5,19.5,"01:13:20",1
"22/05/26","01:30",0.0,17.6,86.6,1004.5,291.6,1.0,1.2,269.3,0.00,15.4,19.4,"01:20:40",1
"22/05/26","01:40",0.0,17.5,87.0,1004.8,273.8,1.0,1.2,281.3,0.00,15.4,19.2,"01:39:44",1
"22/05/26","01:50",0.0,17.5,87.2,1004.8,276.8,1.0,1.4,266.8,0.00,15.4,19.1,"01:40:24",1
"22/05/26","02:00",0.0,17.7,87.3,1004.3,320.1,1.8,2.5,335.0,0.00,15.6,19.2,"01:53:04",1
"22/05/26","02:10",0.0,17.5,87.5,1004.3,294.3,1.2,1.9,298.3,0.00,15.4,19.0,"02:09:24",1
"22/05/26","02:20",0.0,17.4,87.7,1004.5,289.3,1.3,1.7,301.4,0.00,15.4,19.2,"02:10:08",1
"22/05/26","02:30",0.0,17.3,87.9,1004.8,298.5,1.2,1.7,321.2,0.00,15.3,19.1,"02:22:48",1
"22/05/26","02:40",0.0,17.3,88.2,1004.8,293.0,1.3,1.7,321.9,0.00,15.4,19.0,"02:35:52",1
"22/05/26","02:50",0.0,17.3,88.3,1004.5,315.8,1.6,2.2,310.0,0.00,15.4,19.0,"02:43:12",1
"22/05/26","03:00",0.0,17.3,88.5,1005.0,305.2,1.6,2.0,309.1,0.00,15.4,18.9,"02:55:12",1
"22/05/26","03:10",0.0,17.2,88.7,1004.8,283.2,1.0,1.6,298.6,0.00,15.4,18.8,"03:02:56",1
"22/05/26","03:20",0.0,17.1,88.9,1004.5,282.3,1.2,1.6,283.7,0.00,15.3,18.9,"03:19:04",1
"22/05/26","03:30",0.0,17.2,89.0,1004.5,287.8,1.3,1.8,296.7,0.00,15.4,18.7,"03:28:56",1
"22/05/26","03:40",0.0,17.2,89.0,1004.8,302.9,1.5,2.0,318.8,0.00,15.4,19.0,"03:32:08",1
"22/05/26","03:50",0.0,17.2,89.1,1004.5,313.4,1.6,2.2,322.9,0.00,15.4,18.9,"03:44:24",1
"22/05/26","04:00",0.0,17.1,89.1,1004.8,305.8,1.2,1.6,320.8,0.00,15.3,18.7,"03:53:04",1
"22/05/26","04:10",0.0,16.9,89.3,1004.8,304.5,1.5,1.9,311.3,0.00,15.2,18.8,"04:04:00",1
"22/05/26","04:20",0.0,16.9,89.6,1005.0,297.6,1.6,2.1,316.0,0.00,15.2,18.9,"04:11:12",1
"22/05/26","04:30",0.0,16.8,89.7,1004.8,300.4,1.3,1.9,312.4,0.00,15.1,18.6,"04:22:40",1
"22/05/26","04:40",0.0,16.8,90.0,1005.0,296.4,1.3,2.8,302.6,0.00,15.2,18.6,"04:38:24",1
"22/05/26","04:50",0.0,16.9,90.2,1005.0,307.8,1.7,2.4,314.8,0.00,15.3,18.6,"04:44:24",1
"22/05/26","05:00",0.0,17.0,90.4,1004.8,320.2,1.6,2.0,319.4,0.00,15.5,18.5,"04:51:12",1
"22/05/26","05:10",0.0,16.9,90.5,1004.8,294.5,1.3,1.9,317.5,0.00,15.4,18.5,"05:00:16",1
"22/05/26","05:20",0.0,16.8,90.7,1004.5,277.6,0.8,1.4,276.1,0.00,15.3,18.6,"05:19:44",1
"22/05/26","05:30",0.0,17.0,90.8,1004.8,283.6,1.2,1.4,287.6,0.00,15.5,18.3,"05:26:56",1
"22/05/26","05:40",0.0,17.0,91.0,1004.3,299.1,1.1,1.6,311.9,0.00,15.6,18.7,"05:37:52",1
"22/05/26","05:50",0.0,17.3,91.1,1004.3,328.0,1.6,2.4,333.0,0.00,15.9,18.4,"05:45:52",1
"22/05/26","06:00",0.0,17.3,91.1,1004.1,310.1,1.1,1.6,339.5,0.00,15.9,18.3,"05:50:48",1
"22/05/26","06:10",0.0,17.3,91.3,1004.3,305.7,1.1,1.7,314.0,0.01,15.9,18.5,"06:09:52",1
"22/05/26","06:20",0.0,17.6,91.4,1004.3,295.0,1.0,1.3,312.2,0.02,16.2,18.4,"06:13:12",1
"22/05/26","06:30",0.0,18.0,91.4,1004.8,297.3,0.7,1.4,327.9,0.03,16.6,18.5,"06:29:52",1
"22/05/26","06:40",0.0,18.3,91.3,1004.8,313.9,1.2,1.9,320.8,0.05,16.9,18.3,"06:39:20",1
"22/05/26","06:50",0.0,19.0,91.2,1005.0,333.5,1.1,1.9,333.5,0.07,17.6,18.4,"06:40:24",1
"22/05/26","07:00",0.0,19.5,90.8,1004.8,330.6,0.5,1.1,347.6,0.07,18.0,18.2,"06:52:16",1
"22/05/26","07:10",0.0,19.8,90.5,1004.8,305.6,0.7,1.3,321.3,0.07,18.2,18.4,"07:08:40",1
"22/05/26","07:20",0.0,20.1,90.2,1004.8,290.3,0.6,1.1,312.9,0.08,18.5,18.3,"07:19:28",1
"22/05/26","07:30",0.0,20.4,89.8,1005.0,329.4,0.6,0.9,331.3,0.08,18.7,18.2,"07:22:16",1
"22/05/26","07:40",0.0,20.7,89.3,1004.8,1.9,0.5,1.1,355.2,0.11,18.9,18.3,"07:39:20",1
"22/05/26","07:50",0.0,21.1,87.7,1004.8,349.3,0.7,1.3,354.5,0.13,19.0,18.2,"07:41:52",1
"22/05/26","08:00",0.0,21.7,86.5,1004.5,311.1,0.5,1.1,318.5,0.14,19.4,18.3,"07:57:20",1
"22/05/26","08:10",0.0,22.2,84.4,1004.3,306.0,0.2,0.9,263.9,0.15,19.5,18.3,"08:08:56",1
"22/05/26","08:20",0.0,22.5,81.7,1004.8,353.2,0.5,1.4,340.9,0.16,19.3,18.3,"08:16:56",1
"22/05/26","08:30",0.0,22.8,78.4,1004.3,329.5,0.6,1.7,333.0,0.16,18.9,18.3,"08:29:04",1
"22/05/26","08:40",0.0,23.2,75.9,1004.1,313.9,0.8,1.6,258.1,0.20,18.8,18.3,"08:35:04",1
"22/05/26","08:50",0.0,23.7,74.1,1003.6,302.2,0.6,2.2,194.8,0.25,18.9,18.5,"08:40:02",1
"22/05/26","09:00",0.0,24.1,73.0,1003.4,171.6,1.2,2.9,209.5,0.31,19.0,18.3,"08:57:20",1
"22/05/26","09:10",0.0,24.2,71.8,1003.1,167.2,1.3,2.5,142.7,0.29,18.8,18.6,"09:03:44",1
"22/05/26","09:20",0.0,24.3,71.8,1002.9,158.0,1.5,2.9,160.4,0.27,18.9,18.4,"09:11:04",1
"22/05/26","09:30",0.0,24.4,71.9,1002.6,179.3,1.2,3.1,199.8,0.27,19.0,18.5,"09:21:04",1
"22/05/26","09:40",0.0,25.3,70.4,1002.2,162.5,1.1,2.1,217.1,0.37,19.6,18.5,"09:36:08",1
"22/05/26","09:50",0.0,25.2,67.2,1002.4,172.4,2.2,3.7,206.5,0.40,18.7,18.7,"09:43:44",1
"22/05/26","10:00",0.0,25.6,66.2,1001.9,168.6,2.3,3.9,184.1,0.44,18.9,18.7,"09:55:52",1
"22/05/26","10:10",0.0,26.5,66.9,1001.7,177.6,1.3,2.9,194.9,0.47,19.9,18.5,"10:01:44",1
"22/05/26","10:20",0.0,26.4,64.6,1001.7,167.9,1.6,5.9,148.4,0.37,19.2,18.7,"10:11:04",1
"22/05/26","10:30",0.0,26.3,63.6,1001.5,183.1,2.0,3.6,164.8,0.41,18.9,18.9,"10:29:52",1
"22/05/26","10:40",0.0,27.1,62.5,1001.2,164.7,1.5,4.5,141.9,0.53,19.4,19.1,"10:32:56",1
"22/05/26","10:50",0.0,27.0,60.8,1001.9,145.2,1.6,4.0,170.3,0.41,18.8,18.9,"10:45:20",1
"22/05/26","11:00",0.0,27.0,57.0,1001.5,174.2,2.3,4.3,201.4,0.53,17.8,19.1,"10:53:52",1
"22/05/26","11:10",0.0,27.6,56.0,1001.5,143.7,1.6,3.4,197.1,0.50,18.1,18.9,"11:00:16",1
"22/05/26","11:20",0.0,27.5,56.6,1001.5,140.0,1.8,3.3,181.0,0.47,18.2,19.0,"11:18:56",1
"22/05/26","11:30",0.0,27.7,57.4,1000.8,183.4,2.6,4.4,203.2,0.54,18.6,19.1,"11:27:28",1
"22/05/26","11:40",0.0,28.0,55.1,1001.0,178.5,2.7,4.9,185.1,0.57,18.2,19.2,"11:33:12",1
"22/05/26","11:50",0.0,28.7,54.6,1001.0,155.2,1.2,3.3,210.5,0.59,18.7,19.2,"11:41:36",1
"22/05/26","12:00",0.0,28.9,51.1,1001.0,188.2,1.8,5.6,197.3,0.52,17.8,19.4,"11:58:00",1
"22/05/26","12:10",0.0,27.8,52.7,1000.8,210.1,2.3,5.0,221.5,0.33,17.3,19.3,"12:04:56",1
"22/05/26","12:20",0.0,27.3,54.1,1000.0,204.8,1.3,3.6,222.9,0.16,17.3,19.3,"12:12:32",1
"22/05/26","12:30",0.0,27.9,53.8,1000.3,172.3,1.6,3.6,196.7,0.34,17.7,19.3,"12:22:00",1
"22/05/26","12:40",0.0,27.7,54.3,1000.3,164.6,1.0,2.2,171.3,0.17,17.7,19.5,"12:38:48",1
"22/05/26","12:50",0.0,28.6,53.0,999.8,153.2,1.5,2.6,71.3,0.38,18.1,19.5,"12:44:24",1
"22/05/26","13:00",0.0,28.9,52.9,1000.0,179.1,1.8,4.9,212.7,0.46,18.4,19.5,"12:53:12",1
"22/05/26","13:10",0.0,28.6,53.8,999.8,143.5,1.0,3.1,134.4,0.26,18.4,19.6,"13:01:36",1
"22/05/26","13:20",0.0,28.3,55.1,999.8,82.0,0.8,1.9,144.3,0.18,18.5,19.9,"13:10:40",1
"22/05/26","13:30",0.0,27.5,56.0,999.3,18.6,1.3,2.8,0.2,0.09,18.0,19.5,"13:26:00",1
"22/05/26","13:40",0.0,27.3,57.9,999.1,101.4,0.7,2.5,121.8,0.16,18.3,19.8,"13:37:04",1
"22/05/26","13:50",0.0,27.7,57.6,998.9,68.6,1.0,2.5,82.9,0.24,18.6,19.9,"13:40:40",1
"22/05/26","14:00",0.0,27.4,60.3,999.1,108.1,0.8,2.7,98.9,0.14,19.1,19.9,"13:59:28",1
"22/05/26","14:10",0.0,27.6,62.4,999.3,120.0,1.1,3.1,109.2,0.25,19.8,19.9,"14:04:56",1
"22/05/26","14:20",0.0,26.3,64.4,999.1,80.9,1.3,3.6,89.0,0.10,19.1,19.8,"14:17:04",1
"22/05/26","14:30",0.0,25.4,66.7,999.3,78.6,1.2,2.6,110.2,0.07,18.8,19.9,"14:22:40",1
"22/05/26","14:40",0.0,25.4,67.9,999.6,111.1,1.3,3.5,96.4,0.16,19.1,20.0,"14:30:56",1
"22/05/26","14:50",0.0,25.3,68.4,999.8,65.6,1.1,3.5,89.6,0.19,19.1,20.0,"14:42:56",1
"22/05/26","15:00",0.0,25.8,68.5,999.3,24.8,1.0,2.4,64.5,0.22,19.6,19.9,"14:56:56",1
"22/05/26","15:10",0.0,25.7,68.9,999.3,72.9,1.2,3.6,42.0,0.21,19.6,20.0,"15:03:52",1
"22/05/26","15:20",0.0,25.8,69.4,999.3,34.1,0.8,1.9,42.4,0.16,19.8,20.1,"15:11:04",1
"22/05/26","15:30",0.0,25.6,69.7,999.1,13.0,0.7,2.0,356.3,0.12,19.7,19.9,"15:21:36",1
"22/05/26","15:40",0.0,25.6,70.0,999.1,100.3,0.7,2.4,137.4,0.16,19.8,20.0,"15:35:20",1
"22/05/26","15:50",0.0,25.5,70.1,999.3,34.3,1.0,2.5,80.1,0.16,19.7,20.2,"15:40:48",1
"22/05/26","16:00",0.0,25.4,70.4,999.1,101.5,0.8,2.0,86.7,0.09,19.7,20.1,"15:59:44",1
"22/05/26","16:10",0.0,25.1,71.8,998.9,56.5,0.7,1.7,115.7,0.08,19.7,20.2,"16:06:40",1
"22/05/26","16:20",0.0,25.0,72.5,998.6,104.3,1.0,2.8,114.5,0.09,19.8,20.3,"16:19:52",1
"22/05/26","16:30",0.0,25.0,72.6,998.6,1.4,1.1,4.1,352.6,0.09,19.8,20.3,"16:29:12",1
"22/05/26","16:40",0.0,25.2,72.1,998.6,132.7,1.1,3.1,128.7,0.10,19.9,20.2,"16:37:28",1
"22/05/26","16:50",0.0,25.1,71.5,999.1,156.6,1.8,3.9,169.5,0.10,19.6,20.2,"16:44:08",1
"22/05/26","17:00",0.0,25.0,71.2,998.9,151.8,1.5,3.4,162.5,0.08,19.5,20.2,"16:54:32",1
"22/05/26","17:10",0.0,24.8,71.4,998.9,169.5,1.7,3.2,184.9,0.07,19.3,20.2,"17:01:36",1
"22/05/26","17:20",0.0,24.7,71.7,999.1,145.2,1.7,3.5,144.8,0.05,19.3,20.2,"17:11:20",1
"22/05/26","17:30",0.0,24.7,71.9,998.9,152.5,1.1,3.2,175.3,0.03,19.3,20.3,"17:25:52",1
"22/05/26","17:40",0.0,24.6,72.3,998.9,166.5,1.1,2.7,174.4,0.01,19.3,20.2,"17:37:52",1
"22/05/26","17:50",0.0,24.3,71.8,999.1,160.2,1.6,3.5,143.1,0.00,18.9,20.3,"17:41:52",1
"22/05/26","18:00",0.0,24.3,72.3,998.9,132.0,1.0,2.6,130.6,0.00,19.0,20.3,"17:54:08",1
"22/05/26","18:10",0.0,24.0,73.3,999.1,83.8,0.7,1.7,109.1,0.00,19.0,20.4,"18:02:08",1
"22/05/26","18:20",0.0,23.9,74.7,999.3,56.3,0.8,1.8,124.2,0.00,19.2,20.2,"18:12:00",1
"22/05/26","18:30",0.0,23.3,76.6,999.6,126.2,1.3,4.5,154.1,0.00,19.0,20.1,"18:26:56",1
"22/05/26","18:40",0.0,22.7,78.6,999.8,157.5,2.5,5.5,154.4,0.00,18.8,20.2,"18:32:40",1
"22/05/26","18:50",0.0,22.5,79.9,1000.0,149.8,1.1,2.5,129.4,0.00,18.9,20.2,"18:46:08",1
"22/05/26","19:00",0.0,22.2,80.9,999.8,142.5,0.8,2.5,153.2,0.00,18.8,20.3,"18:52:40",1
"22/05/26","19:10",0.0,22.2,81.8,999.8,188.0,0.6,1.6,137.4,0.00,19.0,20.1,"19:06:32",1
"22/05/26","19:20",0.4,21.9,82.9,999.8,158.1,0.7,2.0,126.1,0.00,18.9,20.2,"19:13:12",1
"22/05/26","19:30",0.0,21.7,83.9,999.8,271.5,0.3,0.9,312.5,0.00,18.9,20.1,"19:28:32",1
"22/05/26","19:40",0.8,21.6,84.7,999.8,243.0,0.8,1.7,252.8,0.00,19.0,20.3,"19:37:36",1
"22/05/26","19:50",0.2,21.6,85.7,999.8,331.1,1.7,2.5,333.5,0.00,19.1,20.1,"19:42:48",1
"22/05/26","20:00",0.0,21.2,86.6,999.6,296.1,1.2,1.9,252.1,0.00,18.9,20.1,"19:58:32",1
"22/05/26","20:10",0.6,21.3,87.5,999.8,326.9,1.0,1.6,343.4,0.00,19.2,20.1,"20:01:36",1
"22/05/26","20:20",0.0,21.2,88.3,1000.3,316.2,1.1,1.9,347.3,0.00,19.2,20.1,"20:10:02",1
"22/05/26","20:30",0.0,21.0,88.9,1000.3,307.0,0.8,1.6,311.1,0.00,19.1,20.0,"20:22:16",1
"22/05/26","20:40",0.4,21.1,89.5,1000.3,284.6,0.7,1.8,321.0,0.00,19.3,20.1,"20:39:44",1
"22/05/26","20:50",0.6,20.9,89.9,999.8,333.2,1.3,2.7,341.6,0.00,19.2,20.3,"20:42:56",1
"22/05/26","21:00",1.0,20.8,90.4,1000.0,340.5,1.1,1.8,5.8,0.00,19.2,20.0,"20:52:00",1
"22/05/26","21:10",0.0,20.6,90.8,1000.5,323.6,1.3,1.7,327.6,0.00,19.1,20.1,"21:00:16",1
"22/05/26","21:20",0.4,20.7,91.2,1000.3,313.4,1.0,1.3,320.2,0.00,19.3,20.2,"21:12:56",1
"22/05/26","21:30",0.0,20.7,91.5,1000.5,340.1,1.2,1.8,3.7,0.00,19.3,19.9,"21:24:32",1
"22/05/26","21:40",0.0,20.6,91.8,1000.5,323.1,1.2,2.1,330.5,0.00,19.3,20.0,"21:36:00",1
"22/05/26","21:50",0.2,20.5,92.1,1000.5,338.8,0.8,1.6,338.2,0.00,19.2,20.1,"21:49:36",1
"22/05/26","22:00",0.0,20.4,92.3,1000.3,337.3,1.2,1.7,337.2,0.00,19.1,20.0,"21:50:40",1
"22/05/26","22:10",0.0,20.4,92.6,1000.3,335.7,1.2,1.7,349.0,0.00,19.2,19.9,"22:04:40",1
"22/05/26","22:20",0.0,20.3,92.8,1000.3,289.3,0.8,1.2,314.9,0.00,19.1,19.8,"22:10:32",1
"22/05/26","22:30",0.0,20.2,93.0,1000.3,296.7,0.8,1.6,325.8,0.00,19.1,20.0,"22:22:32",1
"22/05/26","22:40",0.0,20.1,93.2,1000.0,265.2,0.5,1.1,286.6,0.00,19.0,19.8,"22:30:24",1
"22/05/26","22:50",0.2,20.1,93.4,1000.3,297.8,1.2,2.1,342.7,0.00,19.0,19.8,"22:49:52",1
"22/05/26","23:00",0.2,20.2,93.5,1000.3,319.8,1.5,2.5,302.9,0.00,19.2,20.0,"22:50:56",1
"22/05/26","23:10",0.0,20.1,93.7,999.8,327.2,1.3,2.0,326.4,0.00,19.1,19.9,"23:03:52",1
"22/05/26","23:20",0.2,20.0,93.9,999.6,317.1,1.6,2.6,311.6,0.00,19.0,19.9,"23:14:48",1
"22/05/26","23:30",0.0,20.0,94.0,999.3,311.2,1.3,2.0,323.1,0.00,19.0,19.8,"23:22:40",1
"22/05/26","23:40",0.2,19.8,94.1,999.1,297.9,0.3,1.3,330.5,0.00,18.9,20.0,"23:30:16",1
"22/05/26","23:50",0.2,19.7,94.2,999.3,270.1,0.3,0.8,290.3,0.00,18.8,19.7,"23:49:28",1
"22/05/26","24:00",0.4,19.9,94.5,999.1,247.2,0.7,1.3,220.8,0.00,19.0,19.8,"23:56:16",1
